Showing default

DX 1, 40071

Orbit data source: Space-Track

DX 1, 40071 is a payload satellite owned by Dauria (CIS) in SSO that was launched on Tue, 08 Jul 2014 UTC via a SOYUZ-2-1B launch vehicle from the Tyuratam Missile And Space Complex (TTMTR). Payload-class satellites include a variety of spacecraft equipped with specific instruments for various scientific and technological missions. These include communications satellites like Starlink; space stations such as the ISS; scientific satellites like the Hubble; Earth observation satellites from companies like Planet Labs, Umbra, and HawkEye 360; GPS; miniature CubeSats for education and research; and military/defense satellites.

Loading next visibility...
Identifier
40071, 2014-037C
Orbit
SSO
Country
Flag of CISCIS
Related business
Manufacturer
Dauria
Mission
Operational Commercial Technology
Bus & Motor
DX-1, Unknown motor
Mass
21 kg wet, 21 kg dry
Launch date (UTC)
2014-07-08 (11 years ago)
Launch vehicle
SOYUZ-2-1B
Launch site
Tyuratam Missile And Space Complex (TTMTR)
Object type
Payload
Rocket body
Debris
Shape & HBR
Box, 0.1 m
Radar Cross Section
0.060 m², Medium (>0.1 m² and < 1m²)

Expand to show TLE details & history
Last TLE update: 18 hours ago

TLE from 18 hours ago
0 DX 1
1 40071U 14037C   25301.66591443  .00003572  00000-0  38768-3 0  9998
2 40071  98.3560 244.9472 0006236 315.7819  44.2897 14.88836707611642
Epoch: 2025-10-28T15:58Z
TLE epoch observation values (Epoch: 2025-10-28T15:58:55.006Z)
Latitude
-0.00008°
Longitude
-32.03212°
Altitude
601.473 km
Speed
7.561 km/s
True Right ascension
16h 19m 47s
True Declination
0° 00' 00"
Sunlit
Object was in daylight at epoch
Visualization orbit readout
Latitude
Unknown
Longitude
Unknown
Altitude
Unknown
Speed
Unknown
Apparent Right ascension
Unknown
Apparent Declination
Unknown
Sunlit
N/A
Visualization observer readout
Local Sidereal Time
05:35:12
Azimuth
Unknown
Elevation
Unknown
Doppler factor
Unknown
Orbital elements
Apogee altitude
602.97 km
Perigee altitude
594.268 km
Semi-major axis
6,976.756 km
Eccentricity
0.00062
Inclination
98.356°
RAAN
244.9472°
Arg. of periapsis
315.7819°
True anomaly
44.33963°
Mean anomaly
44.2897°
Eccentric anomaly
44.31466°
Mean motion
3.72446 °/min
Orbital period
96.66 mins
BSTAR
0.00038768
Loading maneuver chart data...
Computing Atmospheric mass density...
Loading historical data...
Loading historical data...
Loading historical data...
Loading historical data...
Loading historical data...
Loading historical data...
Loading historical data...

Documentation

Showing up to 5 results
|